GFSFLT2_prec_cthk_000.txt.gz
RH
15 15 15 12 11 11 10 9 9 10 14 17 18 24 26 27 29 29 31 31 30 31 31 30 29 29 30 29 30 33 35 38
15 14 10 8 8 8 9 12 16 18 21 27 30 30 30 30 30 31 33 35 34 33 33 32 32 31 30 29 30 32 35 37
16 13 15 13 12 15 20 23 25 28 31 34 34 35 35 36 36 36 35 36 37 37 38 38 36 34 32 30 29 31 33 34
20 17 17 20 26 28 30 33 34 34 36 35 37 38 39 39 39 39 39 40 40 40 40 40 41 40 38 37 33 30 29 29
30 24 22 27 30 34 38 39 39 40 39 36 39 40 41 43 43 41 40 41 42 42 42 42 41 40 39 38 38 39 36 32
39 32 27 29 34 39 46 48 47 49 47 43 39 41 42 44 45 47 48 49 48 47 45 43 43 39 38 37 36 35 36 35
44 38 37 37 41 54 56 53 52 57 54 51 43 42 46 52 55 55 55 55 53 51 51 49 46 43 41 38 38 39 38 39
48 43 52 54 51 62 61 59 63 58 56 53 52 51 53 59 61 59 58 58 56 54 53 53 51 49 45 40 41 43 48 48
43 49 52 55 56 57 61 65 67 63 64 62 58 56 61 67 64 61 58 54 55 53 51 51 52 51 49 46 48 45 50 43
58 58 64 63 60 58 64 61 64 67 70 66 65 66 71 70 64 59 58 57 55 56 49 46 48 49 48 46 49 47 44 43
57 86 72 73 72 69 61 65 70 77 71 70 73 77 75 72 67 63 58 59 53 50 46 43 44 41 41 40 41 43 43 40
78 72 78 79 75 66 66 69 72 74 77 77 77 71 66 63 62 63 61 55 52 50 46 43 42 40 37 34 32 32 34 38
76 82 81 74 68 71 74 75 77 78 76 77 72 67 64 66 61 56 52 51 51 48 45 45 43 40 35 32 30 30 32 35
67 68 68 69 72 76 76 75 74 75 77 74 70 63 60 54 54 53 51 50 49 49 49 46 45 46 43 38 34 32 36 39
61 62 64 68 71 72 72 73 73 71 66 63 58 55 52 49 48 48 47 48 49 51 54 55 53 50 47 49 46 46 43 40
53 59 63 65 66 66 69 68 63 59 56 54 51 47 44 44 48 49 50 51 51 53 53 51 49 47 50 52 56 55 49 50
52 55 58 61 60 57 53 50 49 48 47 46 49 53 55 51 52 56 60 58 50 43 48 48 50 51 48 47 45 51 51 51
53 53 51 52 52 52 50 48 48 47 48 50 54 56 54 54 64 60 57 52 43 43 41 41 43 44 46 46 45 48 49 51
58 60 60 56 54 51 50 48 48 51 52 55 64 65 72 55 57 55 52 42 32 32 35 36 39 42 47 48 50 54 60 56
55 56 59 59 57 58 58 59 59 57 64 62 73 66 69 52 49 44 42 41 34 32 29 31 34 38 41 44 47 52 62 66

GFSFLT2_prec_cthk_006.txt.gz
RH
23 21 19 19 16 14 10 9 11 17 20 25 28 30 29 29 30 32 31 33 35 34 34 33 32 32 31 30 30 28 27 28
19 16 13 10 10 9 10 15 19 23 28 31 31 31 31 32 32 32 35 37 40 41 42 39 38 37 36 35 34 33 31 29
12 10 10 10 11 14 19 22 26 30 33 34 33 33 33 32 35 36 37 41 44 44 46 46 44 44 43 42 40 36 34 32
14 13 12 15 20 23 26 30 33 38 42 44 44 44 44 43 41 42 41 46 48 48 48 46 47 47 47 45 44 42 41 40
18 19 21 23 26 30 33 39 42 49 49 51 52 52 50 48 46 46 47 49 51 51 51 46 44 45 46 44 42 41 42 40
26 24 28 33 35 37 42 48 50 52 53 49 48 50 53 55 52 50 53 53 54 54 52 47 45 44 44 43 42 39 36 40
39 34 32 41 47 49 54 56 57 57 59 55 52 53 57 56 56 58 62 60 58 54 49 46 45 44 41 40 39 40 38 38
47 49 41 44 53 58 66 73 75 75 74 64 61 61 63 62 63 66 66 63 60 56 50 45 45 44 41 39 38 38 37 38
47 51 54 56 64 75 92 93 88 84 82 76 76 72 70 68 69 71 68 63 59 53 45 41 39 36 34 33 33 33 32 32
52 66 76 83 86 91 91 91 86 85 78 75 78 76 76 73 73 70 65 54 48 46 43 40 38 34 32 31 32 31 30 29
58 68 80 85 91 93 91 85 79 79 79 82 81 83 79 70 67 62 58 52 45 42 40 39 34 31 31 33 35 33 30 29
63 78 83 91 92 90 80 77 74 80 87 88 80 73 68 70 69 61 50 44 43 42 39 37 36 35 35 36 35 35 33 33
74 79 87 84 75 73 70 72 84 90 79 73 68 66 65 57 50 46 47 47 44 41 42 41 39 37 37 36 38 40 39 37
73 67 65 68 71 70 73 70 64 62 62 62 61 54 48 44 45 47 46 44 44 44 42 41 40 37 35 36 35 31 29 28
54 56 57 58 58 59 59 59 59 59 58 53 49 48 49 50 50 48 47 48 48 50 45 41 38 40 36 34 33 32 29 24
58 57 54 56 58 61 62 62 58 54 52 51 52 53 54 55 54 49 46 49 46 41 36 33 34 34 32 32 35 41 42 37
54 52 55 56 57 56 54 51 52 53 54 54 55 55 51 49 43 41 38 39 36 34 35 38 39 36 36 34 35 38 47 54
58 61 58 52 52 52 54 56 58 57 55 52 52 51 46 40 35 33 34 36 38 43 42 43 38 39 40 43 41 44 44 43
62 61 58 55 55 59 60 60 59 56 54 53 50 44 36 30 29 32 36 35 44 51 49 63 60 55 52 47 51 47 47 42
68 66 64 62 59 58 57 55 54 51 48 42 37 32 28 26 29 33 40 39 47 44 59 65 66 56 56 55 55 52 48 41

GFSFLT2_prec_cthk_009.txt.gz
RH
45 34 25 24 22 18 13 10 13 19 24 27 26 27 29 30 31 31 32 34 36 35 36 36 35 34 34 33 32 31 30 30
25 23 22 17 15 13 13 18 21 26 28 29 30 31 32 33 36 39 41 41 43 40 41 40 40 38 38 37 36 37 36 34
18 15 15 14 15 19 23 25 28 32 34 35 38 39 42 46 47 46 46 47 47 44 46 47 45 42 40 40 38 36 35 36
16 17 17 20 25 27 30 32 36 40 43 43 43 46 50 52 52 49 50 51 50 50 50 49 46 42 41 40 38 36 35 33
19 19 22 27 32 35 39 41 44 48 51 49 47 53 55 54 53 52 54 52 53 54 53 50 45 40 39 40 38 34 32 33
28 29 31 33 38 43 45 52 53 60 56 55 59 58 56 57 59 57 55 57 58 58 56 53 47 40 38 37 35 31 31 31
41 36 42 44 47 50 57 60 65 70 69 68 74 73 69 66 66 65 63 64 64 59 56 51 46 41 39 36 31 27 25 24
53 52 46 49 51 55 59 70 81 88 89 86 92 87 80 78 76 73 73 71 65 60 53 49 42 37 34 31 29 27 26 26
55 67 73 75 75 81 86 83 82 80 82 90 92 87 83 81 84 78 76 71 63 54 48 43 38 36 34 32 29 28 28 28
65 72 77 85 85 88 89 86 79 75 83 85 85 85 88 88 80 73 68 60 59 55 47 39 37 37 36 33 32 31 30 29
70 74 81 86 91 95 81 79 73 76 77 80 87 87 81 75 69 64 63 59 49 44 42 40 37 36 36 35 35 34 32 31
66 68 77 82 85 78 71 74 72 72 73 75 73 70 66 63 59 54 49 44 43 42 41 38 37 37 37 35 35 33 31 31
75 77 77 70 68 70 67 64 64 65 60 57 56 55 55 53 50 48 47 47 46 43 41 41 40 38 37 38 33 28 29 32
64 62 59 61 61 59 58 56 51 52 53 53 51 50 50 51 52 52 50 48 47 44 40 37 36 31 30 30 29 28 28 26
49 50 52 53 51 52 52 53 52 50 50 50 52 53 52 51 51 50 48 45 40 38 34 31 32 30 29 31 34 34 38 33
56 55 51 54 54 51 50 50 52 54 57 59 59 56 54 52 49 44 36 34 33 30 28 29 31 35 37 38 36 42 44 38
56 51 59 54 54 54 56 58 60 61 62 62 59 55 49 43 38 31 26 25 25 25 28 29 39 44 43 43 45 47 52 55
50 54 58 62 65 67 65 65 61 59 60 56 52 48 40 33 27 23 23 24 31 40 39 46 42 42 42 37 43 51 58 62
55 59 62 63 63 65 64 60 58 56 50 43 40 33 28 24 23 23 29 34 39 44 55 52 43 41 41 43 43 42 43 49
56 58 61 61 61 62 60 59 59 50 44 38 32 27 22 19 17 23 34 39 42 52 53 48 43 43 39 44 44 46 47 47

GFSFLT2_prec_cthk_015.txt.gz
RH
91 89 85 79 62 35 27 20 12 16 21 24 26 28 27 29 30 34 38 40 41 43 46 45 42 40 39 36 35 39 40 43
94 88 71 50 37 26 21 16 13 22 27 28 30 30 31 35 38 40 43 44 45 48 49 46 44 48 47 43 35 40 40 45
80 70 60 51 35 23 15 15 21 27 32 32 35 47 47 49 45 43 45 47 46 46 48 49 52 55 51 45 42 42 38 44
57 46 41 40 31 22 31 29 39 45 51 44 50 47 53 50 53 51 53 52 53 57 59 59 59 57 53 46 44 41 43 41
24 21 22 35 33 37 39 43 48 48 48 52 57 59 69 68 72 78 76 75 77 72 68 65 60 58 52 46 43 42 42 41
27 21 26 39 41 50 48 55 55 62 64 62 65 66 75 79 81 81 84 85 79 77 77 69 63 56 52 48 45 41 39 37
30 29 39 39 48 53 63 63 63 67 73 73 73 77 75 75 82 83 85 84 85 83 77 69 62 57 52 50 45 41 39 37
40 49 50 53 64 68 70 76 78 75 73 73 75 81 77 79 83 86 88 88 88 79 68 61 57 54 51 46 44 42 41 41
52 54 58 63 71 73 81 84 79 78 69 70 73 73 75 84 84 83 89 85 75 62 56 52 51 50 49 45 41 41 40 39
64 68 73 74 73 76 82 77 68 67 63 62 68 70 76 79 74 66 61 56 56 53 51 48 47 46 44 43 39 36 35 38
71 73 75 76 76 77 73 68 66 66 64 64 62 60 56 52 53 51 49 51 51 50 49 49 48 43 38 40 38 34 37 36
74 75 76 81 82 77 73 67 63 59 59 55 48 45 46 49 51 51 53 55 55 54 50 47 41 40 40 41 35 35 33 33
65 73 81 86 80 75 65 57 52 51 49 46 47 50 52 53 57 59 59 59 56 51 48 44 37 34 38 42 41 38 35 39
72 76 82 79 76 63 61 56 53 51 49 51 55 57 59 62 63 63 60 56 51 47 43 41 38 38 39 40 38 32 31 36
68 69 69 66 61 57 52 50 50 52 54 54 58 63 63 61 56 55 52 49 44 40 40 42 36 35 35 38 37 37 36 34
58 56 57 55 51 50 53 58 61 58 60 61 64 63 62 56 53 53 48 41 41 40 40 40 37 40 41 41 41 41 41 39
54 52 49 45 48 51 52 56 60 62 63 63 62 58 56 47 45 39 39 40 42 42 42 41 43 44 43 41 39 43 44 41
49 49 49 48 50 52 56 60 60 65 70 66 62 48 44 43 38 35 35 41 44 42 42 42 43 45 52 44 44 44 40 46
50 51 51 51 54 57 56 59 63 68 80 61 46 45 43 35 35 37 36 40 41 40 39 43 53 56 50 40 45 49 49 49
52 54 53 54 56 56 58 65 71 78 66 44 43 39 34 33 37 39 44 43 42 42 45 56 55 59 50 47 48 51 60 61

GFSFLT2_prec_cthk_021.txt.gz
RH
99 94 91 85 76 68 51 34 22 12 12 19 22 24 25 26 28 32 35 38 38 40 41 43 48 50 48 44 44 40 38 38
97 86 96 83 69 55 38 26 17 14 19 23 24 29 31 29 32 34 38 42 45 52 55 58 58 58 57 53 49 46 43 40
85 84 85 70 56 43 26 15 13 16 24 28 30 33 34 41 44 46 50 56 61 65 65 66 65 65 62 57 54 50 47 43
72 75 65 57 47 28 19 19 20 23 30 32 35 39 47 49 54 59 64 66 66 68 71 70 71 65 63 61 54 49 47 44
70 59 48 39 25 18 18 22 29 39 42 47 54 52 59 54 58 67 64 67 67 71 75 77 74 70 65 58 54 50 46 42
44 36 31 27 26 27 33 42 47 48 51 54 55 58 59 62 63 65 65 64 67 69 70 72 74 68 59 52 47 46 44 41
35 35 34 36 43 49 52 53 51 55 56 50 55 60 58 58 59 58 56 61 62 65 62 61 48 42 42 41 41 41 40 39
32 34 42 45 51 53 54 54 61 55 51 48 47 51 53 52 50 52 56 57 59 53 44 38 38 38 39 39 37 35 33 34
31 40 44 47 53 59 59 59 61 55 52 47 43 45 47 48 50 53 48 43 39 36 37 39 39 40 39 35 31 33 33 33
41 46 49 57 61 65 64 66 64 57 50 44 42 43 45 44 40 35 34 36 39 41 41 40 40 40 34 31 30 33 34 34
55 55 62 60 64 71 75 72 70 62 51 45 45 40 36 34 35 40 44 46 45 44 43 43 41 30 27 28 28 31 33 33
63 60 59 60 74 73 72 72 69 58 50 42 39 35 35 38 43 46 48 51 50 46 43 36 28 27 27 28 30 30 32 32
55 63 64 57 58 57 63 65 61 51 42 36 35 38 44 45 47 50 53 51 46 38 31 28 28 26 28 30 29 25 27 28
58 64 64 60 59 60 61 57 48 41 37 38 41 44 47 50 53 56 53 47 42 34 29 28 29 30 32 32 30 27 26 28
64 60 59 60 61 59 54 50 45 41 40 42 46 48 51 54 55 57 51 49 41 33 30 30 32 34 36 35 33 32 29 28
60 61 59 60 59 53 51 48 46 44 43 46 48 50 49 50 54 55 49 41 35 32 30 32 36 37 37 35 34 32 30 29
55 56 59 54 52 54 52 51 46 46 48 49 52 51 52 53 54 41 36 34 31 32 33 38 40 38 37 36 36 38 40 37
52 55 51 50 53 52 49 46 48 49 52 57 59 62 58 49 40 40 42 34 34 34 38 43 41 41 41 39 43 46 46 43
56 51 50 52 52 51 51 51 54 57 58 61 63 65 53 40 41 44 40 35 37 40 44 41 39 44 44 42 46 52 54 50
50 48 47 48 49 52 56 58 59 60 63 66 63 56 47 41 46 45 38 38 43 45 45 42 48 46 45 48 52 57 61 54

GFSFLT2_prec_cthk_024.txt.gz
RH
99 98 91 90 85 77 64 46 34 25 18 17 19 22 24 26 28 32 35 35 38 44 49 51 51 52 55 49 46 47 44 41
93 92 86 81 78 63 47 33 21 12 17 22 23 28 28 32 36 36 41 46 51 56 59 56 57 59 58 59 56 53 47 43
84 85 90 81 64 51 39 33 26 26 29 29 32 34 37 38 38 45 48 52 55 57 59 61 63 67 65 64 59 50 44 43
79 74 68 61 50 36 26 21 25 28 29 29 32 40 47 47 52 52 55 57 59 58 61 62 65 65 67 64 51 46 45 43
72 65 57 49 39 27 25 22 28 39 42 42 47 50 49 50 54 56 57 57 56 55 58 61 58 56 54 42 39 35 35 35
53 49 43 32 26 23 26 36 44 49 48 46 50 52 51 52 54 54 53 52 49 52 57 56 49 45 40 37 35 35 34 34
36 34 32 31 34 38 44 45 49 52 53 52 51 50 51 54 54 50 51 48 49 52 51 43 38 36 36 37 36 36 34 33
40 39 40 43 46 49 52 57 57 55 50 52 51 49 46 46 48 49 48 48 46 41 38 36 35 36 36 35 34 28 26 28
42 42 46 48 55 58 60 62 62 59 54 51 45 41 42 43 45 46 47 40 33 33 35 36 37 36 37 37 29 27 28 30
44 46 48 50 53 61 65 69 63 63 58 48 43 37 38 39 38 34 31 31 35 40 41 40 40 39 35 31 26 26 30 30
49 53 52 52 57 67 66 68 64 62 53 43 38 33 33 32 31 30 33 39 44 46 46 46 43 34 29 28 28 29 31 32
50 59 61 60 54 54 60 54 53 52 45 39 35 33 32 31 32 36 43 48 52 51 49 43 36 30 28 29 31 31 31 31
55 62 64 63 63 59 55 50 50 48 42 38 35 33 34 37 42 48 54 56 52 45 42 41 36 33 31 31 31 32 33 32
56 63 62 61 59 57 55 55 56 51 42 39 37 37 41 48 53 55 54 56 48 47 41 35 32 33 33 33 37 36 35 32
68 63 63 59 59 60 60 60 58 49 44 41 40 44 48 50 52 52 52 51 43 38 38 37 34 35 35 39 40 38 34 32
61 64 61 62 64 60 60 55 50 48 47 46 47 51 54 57 61 59 57 39 35 36 37 36 36 37 40 43 43 40 39 38
63 59 58 64 61 61 55 53 53 52 52 52 54 57 60 60 59 59 44 36 37 39 37 37 41 43 46 48 47 45 45 46
62 58 61 63 63 58 54 55 55 55 58 61 64 66 68 64 65 52 44 44 40 39 41 42 42 46 48 48 48 50 51 50
51 51 57 60 57 54 57 60 63 65 66 68 71 69 71 67 66 58 48 51 45 49 47 46 52 52 53 52 51 53 58 56
53 51 54 53 53 56 63 66 67 68 71 74 73 73 74 66 72 55 53 48 47 48 47 52 51 51 53 52 52 58 65 71

GFSFLT2_prec_cthk_030.txt.gz
RH
91 96 97 95 78 64 55 51 49 48 49 50 44 39 33 29 30 32 35 39 44 44 45 47 48 52 52 51 51 47 41 37
93 99 99 89 70 55 52 52 54 56 45 37 36 32 30 31 34 38 42 45 46 50 53 50 49 46 46 49 45 37 34 30
97 95 92 78 66 67 66 65 54 38 32 31 30 31 34 37 42 42 44 43 48 54 50 44 45 42 40 35 32 31 29 28
96 94 88 83 82 79 64 40 30 33 34 37 41 40 39 43 44 45 47 54 55 47 44 43 42 36 32 33 32 30 29 29
93 94 91 89 78 62 50 44 42 42 43 43 40 42 47 48 49 54 58 54 50 46 43 43 37 35 34 34 31 29 30 30
83 82 83 76 67 56 41 36 35 44 48 45 43 45 46 45 45 47 53 51 51 48 43 38 38 38 36 34 32 31 29 30
57 49 42 37 32 32 34 42 46 51 50 52 50 51 47 44 46 47 47 48 49 47 41 38 38 37 34 35 34 31 29 25
45 45 48 46 42 45 48 51 52 53 57 58 54 56 50 44 45 45 47 49 49 43 38 35 35 35 35 34 31 28 24 24
50 52 52 47 48 49 55 58 59 62 64 64 62 54 47 45 45 48 47 45 40 35 34 36 38 38 37 31 27 26 26 27
53 52 48 46 52 62 63 66 71 75 74 69 58 47 43 43 44 46 43 37 34 36 38 38 38 36 33 31 30 31 31 32
55 54 49 50 55 61 63 61 64 63 57 51 47 42 43 44 45 41 35 35 38 41 42 38 36 34 32 32 33 33 34 35
56 60 62 64 61 59 58 58 62 56 53 52 52 46 44 44 39 36 36 37 40 43 42 42 40 32 29 32 35 35 38 38
52 61 58 59 56 56 61 61 60 60 60 57 57 50 45 41 37 36 36 40 45 48 47 45 41 39 41 40 39 39 41 41
48 60 62 65 62 61 64 66 65 64 63 59 56 54 45 39 38 40 42 47 52 55 53 53 50 54 50 48 49 50 50 48
50 58 61 66 68 62 60 66 68 71 71 59 57 55 47 44 45 48 53 56 59 59 66 69 67 53 49 52 54 54 51 54
54 59 61 66 67 66 59 68 75 79 76 60 60 59 52 50 52 52 62 65 66 74 79 70 65 52 53 55 58 59 56 55
62 74 74 74 68 68 61 72 84 80 77 69 64 62 56 59 63 67 71 78 87 93 89 71 55 58 55 55 56 56 61 64
72 88 70 74 72 69 64 66 75 74 70 69 65 66 62 69 72 71 73 84 93 92 74 59 59 56 54 59 62 62 59 57
66 86 84 73 74 74 64 62 69 69 70 67 68 70 73 77 82 83 80 74 85 78 61 60 55 56 65 66 61 57 54 52
65 83 79 67 68 62 55 56 65 67 70 73 77 77 80 83 81 70 75 79 77 62 63 59 61 65 62 57 55 53 54 61

GFSFLT2_prec_cthk_033.txt.gz
RH
93 91 97 97 83 70 59 55 49 48 46 48 46 48 41 39 37 37 39 39 40 46 49 49 48 49 46 42 43 35 28 25
87 92 96 97 88 75 63 55 52 49 49 51 52 42 37 35 37 38 39 44 47 50 48 47 45 43 40 34 30 27 25 25
89 96 94 92 80 67 61 55 54 56 52 47 42 41 40 39 37 43 47 48 50 52 49 43 41 38 32 31 30 29 28 26
99 98 94 84 71 61 57 62 64 55 44 38 42 41 40 44 43 45 49 53 56 52 44 41 38 32 32 32 32 31 29 28
90 93 81 80 73 72 75 67 57 42 39 44 47 47 47 50 48 49 53 58 57 49 47 40 34 33 33 34 32 32 30 29
95 94 93 92 86 76 66 58 49 50 50 50 48 47 46 47 47 50 51 52 49 48 43 35 34 35 34 32 32 31 29 27
93 93 90 89 80 68 55 48 47 45 46 46 46 51 52 50 48 49 48 45 47 46 38 34 34 33 34 34 33 30 27 25
54 58 58 53 41 35 38 43 49 49 52 55 56 60 54 48 47 47 46 43 44 38 36 34 34 34 35 33 31 29 28 26
52 49 47 47 49 47 46 49 50 56 57 58 62 63 52 46 45 46 44 41 40 37 34 35 36 36 33 29 27 25 25 25
56 56 58 54 49 48 47 52 57 62 67 72 71 60 48 45 47 46 42 39 36 33 38 39 38 38 33 27 25 26 27 28
53 55 56 50 50 53 59 62 65 71 75 68 61 54 47 46 45 42 39 35 34 38 41 43 42 39 33 29 33 35 35 36
61 60 59 56 52 52 53 54 55 64 64 55 54 50 46 45 45 42 37 35 37 42 45 46 43 39 39 39 41 37 39 40
63 64 62 57 55 59 60 63 69 69 63 58 55 54 52 48 45 41 39 40 42 46 48 46 49 51 52 52 51 44 44 45
58 65 61 61 62 61 61 66 67 66 63 64 62 56 54 52 46 42 44 45 48 54 56 60 66 69 67 56 52 50 51 49
49 59 63 63 64 64 65 65 73 75 71 72 77 70 60 56 50 46 50 54 54 58 70 79 84 80 74 64 57 54 50 55
53 60 65 66 71 75 69 67 67 75 85 88 82 76 74 66 65 54 55 60 61 69 76 74 83 82 65 58 54 53 58 58
60 66 72 76 82 83 82 76 67 75 83 86 79 75 76 73 70 60 64 71 76 78 89 75 83 78 66 54 55 58 58 55
66 68 75 82 85 80 79 76 70 67 69 73 72 73 73 74 73 71 78 81 82 79 73 79 62 62 56 59 61 60 51 45
68 71 79 80 76 81 78 74 69 65 64 68 77 78 83 80 78 82 84 82 77 74 72 66 65 59 63 63 58 50 50 50
63 70 76 80 79 79 66 62 60 60 63 71 73 81 82 79 82 89 83 78 80 75 80 66 64 67 67 61 54 51 56 56